Flag for Austria Weather past 2 weeks in Oberwart, Burgenland, Austria

Now
30 °F

Light freezing rain. Mostly cloudy.


Feels Like: 30 °F
Forecast: 15 / 34 °F
Wind: 1 mph from North

Location: Graz-Thalerhof-Flughafen

Current Time: Jan 30, 2015 at 4:14:10 AM

Latest Report: Jan 30, 2015 at 3:50 AM


Visibility: 3 mi

Pressure: 29.00 "Hg

Humidity: 100%

Dew point: 30 °F

Location of OberwartLocation

Historic Weather in Oberwart — Graph

°F

Oberwart temperature yesterday

Maximum temperature yesterday: 32 °F (at 1:20 PM)
Minimum temperature yesterday: 23 °F (at 12:50 AM)
Average temperature yesterday: 29 °F

Past Weeks' High & Low Weather Summary

 TemperatureHumidityPressure
High59 °F (Jan 16, 2:20 PM)100% (Jan 15, 6:50 AM)30.24 "Hg (Jan 15, 6:50 AM)
Low18 °F (Jan 28, 4:50 AM)42% (Jan 25, 5:50 AM)29.03 "Hg (Jan 30, 2:50 AM)
Average36 °F80%29.92 "Hg
* Reported Jan 15 2:20 AM — Jan 30 2:50 AM, Oberwart, Weather by CustomWeather, © 2014

Note: Actual official high and low records may vary slightly from our data, if they occured in-between our weather recording intervals... More about our weather records

Advertising

Oberwart weather history for previous 24 hours

 ConditionsComfort  
Time TempWeatherWind HumidityBarometerVisibility
2:50 AM
Jan 30
30 °FLight freezing rain. Passing clouds.1 mph100%29.03 "Hg2 mi
2:20 AM30 °FLight freezing rain. Passing clouds.1 mph100%29.06 "Hg3 mi
1:50 AM30 °FLight freezing rain. Passing clouds.2 mph100%29.09 "Hg3 mi
1:20 AM30 °FLight freezing rain. Passing clouds.2 mph100%29.12 "Hg2 mi
12:50 AM30 °FLight freezing rain. Passing clouds.2 mph100%29.12 "Hg2 mi
12:20 AM28 °FLight freezing rain. Passing clouds.2 mph100%29.15 "Hg3 mi
11:50 PM
Jan 29
30 °FPassing clouds.1 mph100%29.18 "Hg1 mi
11:20 PM28 °FIce fog.1 mph100%29.21 "Hg0 mi
10:50 PM28 °FPassing clouds.1 mph100%29.21 "Hg0 mi
10:20 PM28 °FPassing clouds.1 mph100%29.24 "Hg0 mi
9:50 PM28 °FPassing clouds.2 mph93%29.27 "Hg0 mi
9:20 PM30 °FSnow. Overcast.1 mph100%29.27 "Hg1 mi
8:50 PM30 °FLight freezing rain. Passing clouds.2 mph100%29.30 "Hg2 mi
8:20 PM30 °FLight freezing rain. Passing clouds.1 mph93%29.30 "Hg2 mi
7:50 PM30 °FLight freezing rain. Passing clouds.1 mph93%29.33 "Hg3 mi
7:20 PM30 °FPassing clouds.3 mph100%29.36 "Hg4 mi
6:50 PM32 °FPassing clouds.2 mph93%29.39 "Hg4 mi
6:20 PM32 °FPassing clouds.2 mph100%29.39 "Hg4 mi
5:50 PM32 °FIce fog.2 mph93%29.42 "Hg3 mi
5:20 PM32 °FLight snow. Ice fog.1 mph93%29.42 "Hg3 mi
4:50 PM32 °FLight snow. Ice fog.2 mph93%29.42 "Hg2 mi
4:20 PM32 °FLight snow. Ice fog.2 mph93%29.42 "Hg2 mi
3:50 PM32 °FLight snow. Ice fog.2 mph93%29.45 "Hg3 mi
3:20 PM32 °FLight snow. Partly sunny.1 mph93%29.45 "Hg4 mi
2:50 PM32 °FLight snow. Partly sunny.2 mph93%29.45 "Hg5 mi
2:20 PM32 °FLight snow. Partly sunny.2 mph93%29.47 "Hg5 mi
1:50 PM32 °FLight snow. Partly sunny.3 mph93%29.47 "Hg6 mi
1:20 PM32 °FLight snow. Broken clouds.2 mph93%29.47 "Hg4 mi
12:50 PM30 °FLight snow. Broken clouds.2 mph93%29.50 "Hg4 mi
12:20 PM30 °FSnow. Ice fog.3 mph93%29.50 "Hg1 mi
11:50 AM30 °FSnow. Ice fog.3 mph93%29.53 "Hg1 mi
11:20 AM30 °FSnow. Ice fog.2 mph93%29.53 "Hg1 mi
10:50 AM30 °FSnow. Ice fog.1 mph93%29.53 "Hg1 mi
10:20 AM30 °FSnow. Ice fog.3 mph93%29.56 "Hg1 mi
9:50 AM30 °FChilly.2 mph86%29.53 "Hg1 mi
9:20 AM30 °FLight snow. Broken clouds.2 mph80%29.53 "HgN/A
8:50 AM30 °FPartly sunny.2 mph86%29.53 "HgN/A
8:20 AM30 °FLight snow. Partly sunny.1 mph80%29.53 "HgN/A
7:50 AM30 °FLight snow. Broken clouds.3 mph86%29.53 "HgN/A
7:20 AM28 °FPassing clouds.2 mph86%29.53 "HgN/A
6:50 AM28 °FClear.2 mph86%29.56 "Hg10 mi
6:20 AM28 °FPartly cloudy.1 mph86%29.56 "HgN/A
5:50 AM28 °FClear.1 mph86%29.56 "Hg10 mi
5:20 AM28 °FClear.2 mph86%29.59 "Hg10 mi
4:50 AM28 °FClear.1 mph86%29.56 "Hg10 mi
4:20 AM27 °FClear.2 mph93%29.59 "Hg10 mi
Weather by CustomWeather, © 2014

See weather overviewHow to use our weather pages